Wetbulb
55.56 54.92 54.16 53.71 52.16 51.59 52.28 52.02 51.22 50.25 48.83 49.23 48.89 48.73 48.06 48.44 48.80 49.03 49.71 55.36 58.11 57.96 58.25 57.66 57.24 56.59 56.24 55.50 54.92 54.41 54.19 53.78 53.38 53.17 53.10 52.87 52.72 52.64 52.58 52.42 52.35 52.33 52.09
56.58 55.46 54.55 53.95 53.00 53.38 52.54 51.69 49.72 48.11 46.35 46.75 45.96 46.19 45.81 46.91 45.73 45.49 46.24 49.31 55.76 57.42 56.79 56.96 56.83 56.31 55.70 55.05 54.29 53.77 53.35 52.87 52.49 52.22 51.97 51.75 51.73 51.61 51.59 51.44 51.34 51.28 51.12
58.08 57.23 55.75 54.88 54.85 54.22 54.19 51.89 49.79 45.92 44.81 43.84 41.63 42.16 43.19 43.94 43.87 43.13 43.56 43.83 44.61 51.77 55.85 55.50 55.34 55.08 54.93 54.43 53.64 53.09 52.76 52.30 51.74 51.41 51.06 50.84 50.76 50.83 50.67 50.51 50.47 50.31 50.21
60.80 57.44 55.78 55.15 54.78 52.61 50.54 49.85 46.66 43.01 40.33 41.46 39.67 37.43 37.54 38.59 39.28 40.24 40.86 41.87 42.05 42.96 48.90 53.22 53.35 53.56 53.62 53.34 52.76 52.02 51.60 51.25 50.92 50.66 50.32 50.16 50.03 49.98 49.82 49.74 49.53 49.39 49.28
62.14 59.05 56.94 56.10 54.38 50.61 48.82 47.31 44.52 43.27 40.21 38.69 38.65 37.60 35.72 34.88 35.52 37.24 37.62 40.40 41.39 40.28 40.15 47.27 49.64 51.79 51.87 52.23 52.02 51.41 50.62 50.17 49.65 49.28 49.07 48.92 49.01 49.10 49.02 49.05 49.01 48.83 48.60
62.82 60.72 58.18 56.69 54.97 50.47 47.46 46.39 43.43 42.10 40.09 39.25 38.52 36.86 36.11 33.44 33.29 32.80 33.37 37.12 37.92 37.46 36.68 38.18 38.57 43.24 50.05 50.21 50.55 50.44 49.84 49.01 48.42 47.96 47.74 47.69 47.77 47.84 47.89 47.99 48.07 48.02 48.10
63.10 61.09 59.16 56.72 54.14 50.94 47.95 45.52 43.01 40.73 39.31 38.80 36.48 35.65 35.55 33.32 32.10 31.69 31.62 31.56 32.66 33.26 33.73 35.42 35.50 35.96 40.06 47.20 48.19 48.79 48.83 48.21 47.29 46.63 46.44 46.37 46.47 46.60 46.73 46.88 46.95 46.98 47.11
63.12 61.47 59.76 56.30 54.20 51.40 47.36 44.65 42.27 40.09 38.91 38.81 36.09 35.02 31.01 30.62 33.05 31.87 30.78 31.65 30.32 31.44 31.96 32.51 32.47 34.19 34.51 35.21 40.54 46.07 46.69 46.59 46.04 45.23 44.76 44.65 44.82 44.98 45.42 45.67 45.97 46.16 46.40
62.51 61.70 59.38 56.95 54.42 52.29 47.55 45.04 42.64 41.33 38.56 38.23 38.29 38.28 31.68 30.34 27.83 29.71 29.56 30.01 29.20 28.71 29.15 30.48 31.74 33.47 33.32 33.14 36.68 38.04 43.07 43.40 43.16 42.82 42.48 42.43 42.75 43.16 43.85 44.44 45.01 45.36 45.58
58.93 59.80 58.90 56.92 55.08 53.23 49.58 45.83 43.89 43.70 42.03 37.35 38.23 40.02 39.80 34.12 28.51 25.04 28.73 29.97 28.99 29.08 27.67 28.25 29.41 31.59 32.14 31.60 34.50 36.54 39.51 40.15 39.79 39.75 39.89 40.08 40.69 41.70 42.57 43.38 43.98 44.38 44.74
54.73 57.27 57.05 56.34 55.10 53.90 51.00 47.02 44.07 43.92 43.08 40.88 40.90 39.65 38.97 35.33 32.37 30.16 27.09 27.34 27.98 27.97 28.34 28.66 27.86 28.70 31.03 30.43 30.56 33.11 38.12 38.56 38.44 38.20 38.10 38.29 39.26 40.29 41.29 42.20 43.10 43.87 44.34
50.87 53.49 53.92 55.61 55.29 53.96 51.35 47.59 45.03 44.19 42.88 43.40 42.00 42.83 40.21 37.20 34.03 29.30 27.56 27.82 28.35 28.45 28.26 27.55 28.18 28.33 28.74 28.92 32.58 34.50 36.57 37.48 37.85 37.71 37.44 37.44 38.30 39.19 40.30 41.38 42.61 43.40 43.76
48.64 50.75 52.45 53.31 53.85 53.24 51.09 48.43 45.88 44.60 42.95 43.16 42.36 42.98 43.01 41.31 37.91 34.57 30.41 28.62 26.40 27.51 26.55 27.49 28.72 28.83 29.74 28.37 29.05 34.03 35.26 36.20 36.99 36.83 37.09 37.44 38.03 38.57 39.29 40.72 41.79 42.48 42.83
48.30 49.40 50.17 52.53 52.83 52.24 51.02 48.56 46.58 45.16 44.73 43.67 43.00 42.88 42.16 41.33 38.18 34.64 31.02 28.67 25.64 25.70 26.41 24.88 28.11 29.39 29.69 28.95 29.50 34.58 28.82 34.94 36.44 36.65 36.79 37.40 37.97 38.33 38.83 39.84 40.93 41.44 41.57
47.16 47.91 48.84 49.86 49.90 49.92 49.85 48.41 46.74 44.31 44.33 43.12 43.11 42.63 42.04 40.01 36.64 35.85 32.80 32.09 29.24 24.04 25.00 24.35 25.24 30.17 29.83 29.47 30.36 31.14 28.55 31.48 36.37 36.57 36.47 36.83 37.22 37.77 38.26 38.97 39.88 40.55 40.90
46.26 44.94 46.56 47.80 47.91 47.97 47.81 47.25 46.15 44.85 43.82 43.63 43.47 42.19 41.51 38.92 38.16 35.82 33.82 32.01 30.00 29.01 25.77 26.91 26.79 28.02 29.73 29.96 30.38 29.47 28.19 31.33 33.85 35.15 35.39 36.41 36.59 37.20 37.59 38.05 38.65 39.03 39.27
45.33 43.68 42.97 44.68 45.44 45.68 46.31 46.16 45.86 44.62 43.22 43.25 43.04 41.45 40.19 37.06 35.48 33.56 31.37 30.82 30.20 29.82 27.04 25.34 26.93 27.75 27.96 28.28 28.14 29.16 28.31 28.14 28.04 33.28 34.39 35.37 36.01 36.58 36.90 37.14 37.39 37.41 37.35
41.91 42.79 41.32 41.58 43.07 43.23 44.02 44.76 43.89 43.19 42.13 41.21 39.86 38.46 38.01 33.89 33.09 32.06 31.13 29.86 29.66 29.20 27.45 24.54 24.56 25.32 26.22 27.26 26.51 25.81 26.61 27.62 27.02 30.85 33.91 34.89 35.72 36.25 36.38 36.57 36.45 36.05 35.74
40.70 38.07 38.72 38.84 39.19 40.45 40.80 42.02 42.36 41.48 41.08 40.91 39.51 37.21 34.94 33.04 31.99 30.60 30.37 29.60 28.83 28.07 27.66 25.73 23.57 24.78 24.70 25.78 25.37 25.85 26.31 26.48 27.13 30.45 33.70 34.76 35.58 35.97 35.47 35.36 35.36 34.61 34.25
37.75 35.29 35.63 35.75 34.99 35.77 36.39 37.57 38.49 38.15 38.23 37.30 35.66 35.35 33.20 32.21 31.74 30.29 29.23 28.89 27.76 27.01 26.25 25.72 23.67 23.32 24.00 25.11 24.66 24.47 24.34 25.59 25.79 27.23 29.80 30.99 31.99 32.94 34.13 34.21 33.58 32.65 32.14
35.09 33.86 32.46 32.01 32.13 34.11 34.58 35.14 35.62 35.74 35.06 33.11 32.61 32.48 31.54 31.29 32.03 31.18 29.10 28.20 27.63 26.33 25.62 24.91 23.26 23.06 23.39 23.73 23.55 24.55 23.85 24.64 25.00 26.04 25.48 25.03 25.30 25.09 25.22 29.28 29.68 30.39 31.20
32.64 31.62 30.94 30.67 30.76 31.97 34.54 36.80 35.26 33.93 33.31 32.16 30.20 29.60 29.33 30.01 31.31 32.69 32.84 32.33 29.74 26.77 24.73 24.25 24.07 23.74 24.04 24.92 25.09 24.73 24.28 23.05 20.90 25.94 23.26 22.22 24.68 24.65 24.72 24.69 29.19 30.76 31.18
30.93 30.39 29.81 29.24 30.36 31.38 34.46 36.27 35.81 32.05 31.84 31.43 30.23 28.66 28.69 29.60 30.27 30.66 32.86 32.73 31.77 32.22 30.38 27.52 25.85 25.51 25.18 25.89 25.86 24.79 24.56 23.83 22.91 24.94 23.43 21.87 24.24 22.96 24.60 25.46 29.11 29.68 30.00
29.04 28.03 27.47 27.43 29.99 29.73 33.58 36.11 35.25 30.82 30.58 30.36 29.46 28.99 29.29 29.58 30.56 29.86 29.51 28.92 28.49 29.37 30.49 30.09 28.77 28.28 27.31 27.27 27.51 27.33 26.45 24.42 23.78 24.67 24.49 17.13 21.96 21.55 23.09 22.65 27.38 27.36 26.55
24.99 24.69 26.05 25.95 29.17 29.02 32.97 35.42 34.58 29.20 28.98 28.54 28.59 29.65 30.07 29.75 31.80 32.36 28.90 28.01 27.56 28.29 31.98 32.79 32.17 31.49 30.99 31.06 29.71 27.45 22.52 20.29 19.04 21.75 23.91 21.15 20.17 18.67 19.48 19.28 20.02 22.99 22.44
27.19 29.22 29.54 29.64 29.37 29.12 32.42 34.67 34.16 29.06 27.32 26.78 27.70 28.59 29.98 30.48 33.14 33.22 28.93 28.80 27.59 28.04 27.91 27.80 29.07 30.55 32.06 32.36 34.06 29.79 26.06 19.78 18.85 16.12 20.45 16.64 16.66 15.08 11.25 15.74 16.39 15.19 14.94
MSLP
1025.41 1025.70 1026.05 1026.21 1026.47 1026.79 1027.17 1027.54 1027.72 1027.96 1028.32 1028.49 1028.69 1028.86 1029.25 1029.34 1029.25 1029.52 1029.51 1029.13 1029.11 1029.14 1029.25 1029.38 1029.63 1029.81 1030.01 1030.13 1030.20 1030.30 1030.39 1030.43 1030.40 1030.31 1030.28 1030.28 1030.21 1030.12 1030.05 1029.96 1029.81 1029.70 1029.64
1024.87 1025.51 1025.93 1026.24 1026.47 1026.56 1026.97 1027.41 1027.88 1028.26 1028.66 1028.78 1029.11 1029.29 1029.57 1029.68 1030.00 1030.14 1030.15 1029.85 1029.77 1029.55 1029.55 1029.68 1029.90 1030.10 1030.27 1030.37 1030.50 1030.62 1030.72 1030.79 1030.76 1030.75 1030.72 1030.72 1030.67 1030.62 1030.55 1030.44 1030.31 1030.23 1030.13
1024.22 1024.95 1025.47 1025.95 1026.16 1026.53 1026.58 1027.23 1027.90 1028.42 1028.81 1029.11 1029.53 1029.72 1029.96 1030.23 1030.44 1030.55 1030.52 1030.70 1030.64 1030.31 1030.09 1030.10 1030.24 1030.40 1030.53 1030.69 1030.83 1030.96 1031.07 1031.17 1031.18 1031.18 1031.18 1031.15 1031.07 1030.97 1030.90 1030.80 1030.70 1030.59 1030.45
1023.50 1024.39 1024.97 1025.43 1025.81 1026.28 1026.94 1026.97 1027.74 1028.37 1029.13 1029.30 1029.76 1030.20 1030.49 1030.66 1030.87 1030.99 1031.08 1031.21 1031.33 1031.26 1030.96 1030.68 1030.67 1030.68 1030.83 1030.82 1031.09 1031.27 1031.38 1031.46 1031.50 1031.54 1031.53 1031.47 1031.38 1031.27 1031.15 1031.02 1030.91 1030.82 1030.73
1022.65 1023.25 1024.15 1024.87 1025.52 1026.19 1026.72 1027.26 1027.85 1028.21 1028.92 1029.53 1029.94 1030.34 1030.70 1031.12 1031.28 1031.41 1031.65 1031.73 1031.81 1031.90 1031.97 1031.71 1031.40 1031.12 1031.04 1031.11 1031.34 1031.57 1031.73 1031.82 1031.89 1031.89 1031.85 1031.77 1031.62 1031.47 1031.36 1031.25 1031.16 1031.05 1030.89
1021.80 1022.59 1023.46 1024.05 1024.85 1025.82 1026.61 1027.11 1027.61 1028.37 1028.87 1029.49 1030.17 1030.89 1031.15 1031.35 1031.60 1031.84 1032.00 1032.02 1032.18 1032.31 1032.45 1032.37 1032.13 1031.83 1031.52 1031.49 1031.56 1031.73 1031.95 1032.09 1032.11 1032.08 1032.03 1031.93 1031.77 1031.60 1031.46 1031.35 1031.19 1031.07 1030.92
1021.03 1021.76 1022.58 1023.31 1024.07 1024.95 1025.50 1026.43 1027.51 1027.99 1028.84 1029.59 1030.38 1031.37 1031.89 1031.80 1031.66 1031.85 1032.04 1032.21 1032.28 1032.41 1032.59 1032.69 1032.62 1032.49 1032.30 1032.06 1031.90 1031.91 1032.02 1032.17 1032.29 1032.25 1032.12 1032.02 1031.90 1031.76 1031.55 1031.40 1031.21 1031.00 1030.78
1020.14 1020.76 1021.49 1022.37 1023.23 1024.19 1025.35 1025.84 1026.46 1027.64 1028.36 1028.57 1029.40 1030.82 1031.79 1032.22 1032.01 1031.66 1031.97 1032.10 1032.29 1032.33 1032.49 1032.61 1032.76 1032.85 1032.79 1032.74 1032.46 1032.23 1032.18 1032.27 1032.36 1032.46 1032.45 1032.26 1032.09 1031.85 1031.73 1031.49 1031.27 1031.06 1030.82
1019.48 1019.83 1020.58 1021.38 1022.34 1023.13 1023.84 1024.64 1025.48 1025.95 1026.51 1027.81 1027.91 1028.15 1030.47 1030.32 1031.29 1031.38 1031.52 1031.74 1032.06 1032.30 1032.37 1032.44 1032.56 1032.63 1032.72 1032.75 1032.82 1032.87 1032.64 1032.66 1032.69 1032.66 1032.61 1032.39 1032.21 1031.96 1031.63 1031.45 1031.26 1031.03 1030.76
1019.10 1019.44 1019.92 1020.60 1021.33 1022.05 1022.87 1023.79 1024.42 1024.74 1025.29 1025.99 1027.31 1027.00 1027.15 1028.22 1029.50 1031.26 1031.35 1031.44 1031.63 1031.93 1032.14 1032.33 1032.23 1032.24 1032.45 1032.80 1032.98 1033.14 1033.02 1032.96 1032.92 1032.81 1032.73 1032.44 1032.18 1032.00 1031.65 1031.40 1031.13 1030.84 1030.60
1019.08 1019.30 1019.74 1020.19 1020.38 1020.93 1021.77 1022.55 1023.56 1024.27 1024.44 1025.06 1024.53 1025.81 1026.58 1027.40 1027.46 1028.57 1029.93 1030.82 1031.47 1031.48 1031.38 1031.55 1031.89 1031.97 1032.11 1032.47 1032.83 1032.93 1032.78 1032.70 1032.67 1032.66 1032.58 1032.45 1032.19 1031.86 1031.42 1031.21 1030.94 1030.71 1030.45
1019.33 1019.47 1019.66 1019.80 1019.99 1020.24 1020.80 1021.41 1022.25 1022.90 1023.20 1023.31 1024.17 1023.97 1024.65 1025.18 1025.65 1026.67 1028.23 1029.59 1029.97 1030.36 1030.79 1030.97 1031.48 1031.61 1031.72 1032.06 1032.19 1032.39 1032.36 1032.32 1032.34 1032.48 1032.57 1032.37 1032.17 1031.94 1031.54 1031.19 1030.85 1030.55 1030.27
1018.74 1018.80 1019.21 1019.56 1019.54 1019.58 1019.93 1020.75 1021.13 1021.98 1022.27 1022.61 1023.06 1023.11 1023.35 1023.40 1024.26 1025.00 1025.87 1028.22 1029.12 1030.17 1030.19 1030.13 1030.36 1030.62 1030.90 1031.34 1031.57 1031.65 1031.84 1031.94 1032.05 1032.21 1032.24 1032.06 1031.89 1031.67 1031.45 1031.13 1030.70 1030.36 1030.13
1017.74 1018.19 1018.50 1018.49 1018.71 1018.95 1019.26 1019.80 1020.48 1021.02 1021.41 1021.65 1021.91 1022.61 1022.70 1023.02 1023.52 1024.40 1025.22 1026.44 1028.54 1028.94 1029.29 1028.88 1029.04 1029.50 1029.83 1030.31 1030.77 1031.08 1031.47 1031.50 1031.59 1031.63 1031.69 1031.60 1031.53 1031.29 1031.12 1030.88 1030.50 1030.14 1029.91
1016.69 1017.20 1017.74 1018.14 1018.24 1018.38 1018.53 1018.90 1019.44 1020.07 1020.26 1020.75 1021.26 1021.89 1022.06 1022.54 1022.80 1023.51 1024.39 1025.00 1025.82 1027.87 1027.66 1028.41 1028.12 1028.07 1028.61 1029.36 1029.86 1030.29 1030.71 1030.95 1030.92 1030.94 1031.10 1031.18 1031.07 1030.91 1030.69 1030.49 1030.14 1029.81 1029.51
1016.27 1016.46 1017.01 1017.49 1017.73 1017.80 1017.94 1018.36 1018.72 1019.14 1019.55 1019.82 1020.31 1020.85 1021.20 1021.64 1022.10 1022.79 1023.49 1024.02 1024.26 1025.02 1026.25 1026.36 1026.93 1027.22 1027.73 1028.44 1028.98 1029.58 1029.98 1030.36 1030.48 1030.38 1030.52 1030.57 1030.54 1030.46 1030.20 1029.97 1029.75 1029.62 1029.28
1015.62 1016.03 1016.29 1016.68 1017.05 1017.29 1017.33 1017.70 1018.00 1018.23 1018.68 1019.04 1019.24 1019.79 1020.12 1020.91 1021.07 1021.93 1022.43 1023.08 1023.83 1024.65 1025.56 1026.51 1026.23 1027.04 1027.45 1027.90 1028.56 1029.07 1029.44 1029.78 1030.18 1029.96 1030.05 1030.03 1030.00 1029.93 1029.85 1029.78 1029.49 1029.16 1028.87
1014.83 1015.11 1015.58 1015.93 1016.21 1016.58 1016.77 1016.85 1017.10 1017.42 1017.81 1018.24 1018.56 1019.07 1019.27 1020.00 1020.54 1021.00 1021.95 1022.36 1023.12 1024.08 1025.00 1025.69 1026.33 1026.81 1027.18 1027.59 1028.06 1028.77 1029.21 1029.54 1029.81 1029.73 1029.81 1029.75 1029.65 1029.50 1029.38 1029.22 1029.01 1028.84 1028.60
1014.22 1014.91 1015.28 1015.57 1015.62 1015.83 1016.09 1016.20 1016.33 1016.72 1017.11 1017.51 1018.02 1018.33 1018.77 1019.28 1019.94 1020.43 1021.05 1022.08 1022.85 1023.35 1024.08 1024.68 1025.81 1026.28 1026.82 1027.33 1027.98 1028.38 1028.69 1029.25 1029.20 1029.24 1029.20 1029.27 1029.22 1028.97 1028.90 1028.70 1028.74 1028.52 1028.18
1013.84 1014.29 1014.81 1015.16 1015.32 1015.48 1015.74 1015.87 1015.99 1016.26 1016.68 1017.10 1017.53 1018.04 1018.61 1018.99 1019.52 1020.28 1021.13 1021.78 1022.32 1023.41 1024.27 1024.58 1025.18 1025.88 1026.47 1027.18 1027.65 1028.06 1028.59 1028.54 1028.67 1028.54 1028.45 1028.62 1028.59 1028.56 1028.51 1028.27 1027.89 1027.97 1027.91
1013.39 1013.87 1014.32 1014.65 1014.96 1015.30 1015.58 1015.80 1015.94 1015.98 1016.33 1016.90 1017.32 1017.72 1018.19 1018.90 1019.60 1020.17 1020.70 1021.53 1022.49 1023.40 1023.75 1024.23 1025.09 1025.75 1026.29 1026.66 1026.87 1027.39 1027.78 1028.07 1028.37 1028.20 1028.01 1028.24 1028.18 1028.21 1028.16 1028.12 1027.96 1027.78 1027.36
1013.23 1013.67 1014.19 1014.53 1014.77 1014.80 1014.93 1015.19 1015.49 1015.78 1016.04 1016.45 1016.89 1017.49 1018.02 1018.66 1019.31 1019.85 1020.78 1021.25 1021.44 1022.11 1022.97 1023.78 1024.66 1025.05 1025.56 1025.96 1026.25 1026.72 1027.30 1027.80 1027.97 1027.64 1027.77 1027.80 1027.79 1027.78 1027.82 1027.78 1027.43 1027.06 1026.73
1012.88 1013.37 1013.70 1014.07 1014.36 1014.56 1014.62 1014.88 1015.32 1015.58 1015.87 1016.18 1016.68 1017.32 1017.99 1018.48 1019.20 1020.00 1020.92 1021.32 1021.55 1021.77 1021.92 1022.71 1023.75 1024.30 1024.85 1025.13 1025.67 1026.28 1026.84 1027.02 1027.12 1027.13 1027.40 1027.28 1027.13 1027.15 1027.20 1027.09 1026.89 1026.74 1026.48
1012.73 1013.04 1013.36 1013.64 1013.98 1014.11 1014.30 1014.62 1014.97 1015.41 1015.64 1015.88 1016.38 1016.91 1017.60 1018.32 1019.02 1019.90 1020.71 1021.25 1021.59 1021.96 1022.21 1022.84 1023.38 1024.16 1024.36 1024.62 1024.97 1025.69 1026.28 1026.65 1026.86 1026.97 1027.06 1027.17 1026.65 1026.72 1026.66 1026.74 1026.66 1026.55 1026.43
1012.76 1013.11 1013.20 1013.43 1013.61 1013.81 1014.01 1014.26 1014.88 1015.26 1015.49 1015.94 1016.40 1016.96 1017.52 1018.16 1018.91 1019.61 1020.34 1020.93 1021.59 1022.21 1022.50 1022.68 1023.41 1023.85 1023.90 1024.40 1024.90 1025.71 1026.20 1026.66 1027.02 1026.90 1026.96 1027.13 1026.92 1026.69 1026.52 1026.46 1026.85 1026.73 1026.43
1011.90 1012.38 1012.93 1013.27 1013.52 1013.65 1013.93 1014.18 1014.46 1015.08 1015.55 1016.07 1016.49 1016.98 1017.36 1017.93 1018.57 1019.16 1019.99 1020.58 1021.44 1021.76 1022.09 1022.60 1023.13 1023.20 1023.73 1024.00 1024.23 1024.84 1025.44 1026.06 1026.64 1026.89 1026.99 1027.24 1027.30 1027.50 1027.48 1027.10 1026.87 1026.88 1026.89
Wind_Speed
7 5 5 5 5 5 4 5 4 6 6 7 6 8 6 6 9 4 4 10 14 14 15 16 16 16 17 17 17 17 17 18 18 18 19 19 19 20 20 20 21 21 21
8 6 6 5 4 5 5 5 5 5 5 6 6 6 6 7 7 7 4 8 13 12 14 14 15 15 16 16 16 16 16 16 16 17 17 17 18 18 18 18 19 19 19
11 9 8 6 5 5 9 8 7 6 6 5 6 6 6 6 5 6 5 5 6 12 11 13 13 14 14 15 14 14 14 15 15 15 15 15 16 16 17 17 17 18 18
13 10 8 7 5 6 5 8 8 7 5 6 5 4 5 5 6 6 5 5 5 5 6 10 11 12 13 13 13 13 13 13 13 13 13 13 14 15 15 15 16 16 16
15 13 10 8 7 7 8 8 6 8 7 5 6 5 4 5 5 4 6 5 6 5 4 9 10 7 11 11 12 12 11 11 11 11 11 11 12 12 12 13 14 14 15
16 12 10 11 10 8 8 7 10 6 6 7 7 5 3 4 4 4 5 4 5 5 4 4 4 4 8 9 10 10 10 10 10 9 9 9 9 10 10 11 12 13 14
15 14 10 12 12 12 12 11 8 12 7 8 6 4 3 2 5 4 4 4 5 5 4 3 3 3 3 7 6 8 9 8 8 7 7 7 7 8 9 9 10 11 13
16 14 14 14 15 11 11 13 13 9 4 11 5 3 4 2 3 5 4 5 6 4 5 5 4 4 3 2 2 5 6 6 6 5 5 5 6 6 7 8 10 11 13
12 15 15 14 15 13 13 15 15 16 10 11 12 7 4 6 3 3 5 5 6 4 5 5 6 6 5 4 4 1 5 5 4 3 2 3 4 5 6 8 10 12 13
10 11 13 14 16 12 14 14 14 14 10 14 6 7 2 5 5 3 2 4 5 7 6 5 6 6 6 4 7 6 6 5 3 2 1 1 3 5 7 8 10 12 13
5 8 10 13 15 13 14 16 15 15 11 9 13 5 2 3 2 4 5 5 2 5 6 7 5 5 6 6 5 6 9 8 7 5 4 3 4 6 7 8 10 12 13
5 7 6 10 12 12 14 15 16 18 15 12 11 9 9 8 6 5 4 5 10 5 6 5 6 5 5 5 9 12 12 10 9 8 6 5 6 7 8 10 11 13 14
7 11 12 10 10 13 13 13 14 16 16 14 15 12 10 10 2 2 6 3 4 3 5 5 7 7 7 6 7 13 14 13 11 9 7 7 8 8 9 11 12 13 15
8 10 12 13 13 13 12 14 11 12 14 13 15 13 9 7 4 4 4 7 3 3 3 3 5 9 8 8 10 16 7 14 13 11 9 9 10 10 10 12 13 14 16
8 11 12 14 11 11 13 13 11 14 13 13 13 13 10 6 5 5 5 7 8 6 11 7 5 12 9 8 10 8 7 11 14 13 11 11 11 11 11 13 14 15 16
9 10 12 13 12 12 12 13 11 12 13 11 11 14 13 8 10 7 9 8 2 5 4 3 6 5 10 9 11 9 8 12 14 12 12 13 13 13 13 14 16 17 17
10 10 11 12 13 13 13 13 13 12 15 14 14 14 15 11 9 9 6 4 4 3 3 2 2 3 9 10 7 6 6 5 6 13 13 13 14 14 15 16 17 17 18
8 11 11 12 12 13 12 14 14 12 15 14 14 13 15 9 12 10 7 8 6 4 4 4 2 3 4 7 6 6 5 4 5 10 14 14 15 15 15 17 18 17 19
8 7 8 11 11 12 12 13 13 12 13 13 13 14 13 13 11 9 9 9 5 3 2 4 4 2 2 3 3 3 4 5 4 9 14 14 16 16 17 17 18 18 20
8 8 8 9 9 9 10 10 10 10 10 9 9 10 10 12 11 11 9 9 7 5 4 6 3 3 3 2 3 3 5 3 4 4 9 10 12 14 15 17 17 20 21
7 7 7 7 7 8 7 9 10 10 10 9 8 8 9 9 12 13 9 7 9 7 5 5 3 3 3 3 6 4 3 2 3 4 3 3 3 3 5 12 14 17 19
7 7 7 7 7 6 12 17 12 10 11 12 11 9 9 12 16 20 18 20 16 11 6 4 3 3 4 3 4 4 3 3 2 3 3 3 3 5 4 4 12 17 19
7 7 7 7 8 7 14 17 16 7 9 9 10 10 10 9 13 12 16 17 14 11 9 7 6 4 4 5 5 4 4 3 4 3 1 5 3 5 4 5 13 16 19
6 5 6 6 6 6 13 16 15 6 7 9 11 11 11 12 12 12 11 8 6 4 6 5 5 4 4 5 5 4 4 3 1 2 2 3 2 3 2 2 12 12 11
3 4 3 5 7 5 13 15 14 6 6 8 9 11 12 13 19 22 13 11 6 4 7 8 8 11 8 8 6 3 3 2 2 3 1 2 2 2 0 1 2 9 15
4 4 4 4 4 4 12 16 15 5 7 6 7 9 17 16 25 24 11 10 9 7 6 3 5 7 9 8 13 8 4 3 3 1 1 1 2 4 4 2 2 4 4
Wind_Direction
153 154 153 155 160 146 139 131 120 105 96 94 91 98 88 85 65 52 35 40 100 115 109 108 105 103 98 96 92 88 86 84 82 80 79 76 73 70 67 64 62 59 55
159 168 161 177 171 160 144 129 122 114 103 103 91 90 82 79 71 57 42 46 41 114 114 111 110 106 103 97 94 92 91 89 87 83 80 78 74 71 67 64 61 57 53
166 166 169 176 171 159 146 134 121 107 108 96 96 93 95 96 93 76 57 56 31 33 104 112 112 112 108 102 98 96 95 93 89 86 84 80 76 72 67 62 58 54 49
166 166 170 177 155 140 145 144 145 132 123 125 122 103 99 90 91 85 72 66 54 36 37 107 118 117 111 110 108 104 102 99 94 89 84 81 74 69 64 60 55 49 44
177 171 174 172 154 147 150 151 143 147 141 131 126 118 112 104 98 94 93 91 80 62 45 46 47 100 118 116 114 111 107 102 96 91 86 79 73 66 60 54 48 42 36
180 174 180 171 160 158 155 159 153 143 145 143 124 96 83 112 115 112 116 116 117 100 82 62 37 23 103 116 121 121 117 109 103 98 90 82 73 64 56 47 40 33 28
183 179 179 170 167 174 171 162 153 149 143 135 105 82 32 112 139 152 149 147 147 150 144 122 77 56 55 69 125 128 127 124 116 110 99 85 69 58 48 39 31 25 18
184 182 177 176 179 165 168 165 162 154 135 170 136 113 164 282 250 182 168 170 177 168 166 167 149 135 113 64 111 132 140 138 132 118 93 74 55 44 29 24 17 10 7
189 182 181 178 179 180 173 176 174 178 166 192 176 149 160 211 153 185 200 187 177 179 176 171 167 165 159 150 131 133 160 153 139 121 88 57 28 12 9 5 2 358 357
175 184 184 181 182 182 181 187 183 188 176 182 189 238 182 150 165 166 235 208 185 186 185 196 180 175 162 157 172 192 188 176 171 168 222 337 343 343 347 349 348 348 347
206 186 187 192 190 186 187 180 185 193 197 187 193 167 178 190 130 147 161 184 220 205 191 188 188 179 173 168 172 198 196 197 199 211 229 275 305 318 328 332 335 339 341
213 225 204 205 199 194 189 186 191 196 195 192 209 188 193 173 187 158 139 169 199 203 191 181 189 190 181 179 190 198 203 208 213 222 239 262 283 300 317 320 327 333 334
202 211 212 212 208 202 191 193 191 199 199 200 199 209 207 202 211 127 120 136 161 196 198 195 193 189 188 184 191 194 208 218 222 227 242 256 273 288 303 313 319 325 327
203 201 212 213 211 201 194 192 198 203 206 207 203 209 200 208 163 159 141 142 139 186 217 207 179 192 187 186 195 200 207 224 226 231 246 262 268 279 291 305 314 317 320
189 195 204 213 209 203 198 190 196 201 201 199 205 204 205 198 160 169 167 180 154 173 203 209 173 195 185 181 194 193 193 221 229 233 245 265 267 275 287 299 306 312 314
192 186 198 209 211 207 198 197 200 203 202 202 203 200 205 197 193 183 191 191 167 152 187 171 202 173 181 189 193 185 196 213 232 235 251 254 263 271 281 291 300 308 309
192 193 193 200 208 211 203 201 206 198 203 204 202 202 204 198 186 187 165 155 153 169 135 215 125 182 174 183 184 182 188 204 229 233 247 257 264 271 281 291 298 302 307
193 193 190 197 202 208 207 206 204 199 200 202 200 198 202 189 188 170 177 169 163 166 159 146 122 132 175 186 168 176 199 215 221 232 250 261 268 274 284 287 297 299 306
195 193 192 201 200 203 204 208 204 203 205 205 201 197 193 184 184 175 172 176 158 124 139 140 146 141 129 139 146 176 176 219 226 238 254 264 266 274 288 295 295 301 305
192 189 198 205 202 198 205 206 204 194 198 196 188 191 181 186 182 170 171 171 137 138 161 151 98 117 125 130 123 165 218 202 231 221 244 246 257 273 280 292 296 300 299
196 190 189 199 194 198 206 203 204 196 188 178 173 172 174 175 172 172 159 159 162 173 158 137 119 135 159 160 186 181 203 182 235 227 227 235 243 259 267 285 284 291 299
195 184 202 200 201 208 211 210 198 196 191 185 177 172 154 155 172 170 183 184 175 164 158 138 137 146 168 174 158 166 160 173 235 206 169 230 222 258 247 237 275 300 306
180 199 197 190 209 214 214 212 203 196 190 188 177 165 163 167 165 173 186 183 182 171 165 151 153 163 162 181 153 162 190 179 198 211 171 266 221 256 244 259 295 300 308
189 185 190 191 202 209 215 213 196 192 192 186 177 167 159 161 173 170 162 160 159 167 153 150 131 162 182 163 142 162 194 191 9 246 171 250 219 249 220 259 286 307 337
159 175 177 180 198 202 210 207 190 177 177 172 164 166 170 170 179 171 166 162 160 185 191 180 185 202 186 182 177 179 204 135 246 229 127 275 356 310 303 286 62 4 359
171 154 157 174 177 180 204 205 191 177 164 157 153 170 173 173 175 173 166 159 178 197 172 165 216 215 216 223 218 201 171 173 176 293 189 162 8 26 329 296 11 34 6